User: anonymous   Login
Location: Gunung Kajang
(2.4167°N, 113.7167°E)
Time: 09:36:38
(UTC+00:00)
Language:

ATLAS 5 CENTAUR R/B - Orbit

View from above orbital plane
View from above orbital plane
View from above satellite
View from above satellite

Ground track
Ground track

The orbit data is extracted from the following two-line orbital elements,

1 36869U 10039B   22224.50905813  .00006243  00000-0  78948-3 0  9992
2 36869  20.1510 320.7033 4767469   2.5182 359.2154  6.02974865199614
Epoch (UTC): 12 August 2022 12:13:02
Eccentricity: 0.4767469
inclination: 20.1510°
perigee height: 294 km
apogee height: 12451 km
right ascension of ascending node: 320.7033°
argument of perigee: 2.5182°
revolutions per day: 6.02974865
mean anomaly at epoch: 359.2154°
orbit number at epoch: 19961

The dashed part of the orbit path shows where the satellite is in the earth's shadow,  

DLR